Погода в Новом Бельтире

Россия / Республика Алтай     49°55′47″N   88°36′09″E
темп.,
°C
ветер,
м/с
пор.,
м/с
влажн.,
%
обл.,
%
осадки,
мм/ч
давл.,
гПа
погр.,
м
11 мая, вт
вт1101:00+7зсз445488 0.1 1008481
04:00+5юз1169100 0.1 100715
07:00+5ссв1170100 0.5 1007229
10:00+5с2370100 1.3 1008403
13:00+9ююв2252100 1.8 10061352
16:00+10сз344182 0.4 10041625
19:00+10сз3442100 0.8 10061376
22:00+6ссз236511 0.0 100978
12 мая, ср
ср1201:00+4с237699 0.0 1010165
04:00+3с1180100 0.1 100924
07:00+4сз127665 0.1 1009282
10:00+7сз125657 0.1 10071199
13:00+8ссз865210 0.7 10061196
16:00+7сз674686 0.3 10071386
19:00+5сз6653100 0.5 10091178
22:00+3сз5666100 0.1 1012706
13 мая, чт
чт1301:00+2сз4670100 0.2 1013630
04:00+1сз5682100 0.5 1014461
07:00+1сз4678100 1.4 1014545
10:00+4сз5653100 0.1 10131356
13:00+6ссз5541100 0.1 10121860
16:00+8ссз443673 0.1 10101984
19:00+7с434284 0.1 10111467
22:00+4с22574 0.0 101376
14 мая, пт
пт1401:00+3ссв116699 0.0 101211
04:00+2в1166100 0.0 101210
07:00+3ссв0059100 0.0 1012182
10:00+6ююв114898 0.1 10101176
13:00+8зсз1237100 0.6 10081836
16:00+10ссз773489 0.4 10072255
19:00+6сз8950100 0.6 10111348
22:00+3сз466215 0.6 1016776
15 мая, сб
сб1501:00+1зсз35652 0.7 1019277
04:000сз467533 0.1 1021334
07:000сз456642 0.1 1023708
10:00+4сз34396 0.0 10221142
13:00+8сз562877 0.0 10191520
16:00+10сз68359 0.0 10181640
19:00+11сз68336 0.0 10161678
22:00